Tracking 30995 objects as of 5-Jul-2025
HD Live streaming from Space Station
objects crossing your sky now

STARLINK-2480

Track STARLINK-2480 now!
10-day predictions
STARLINK-2480 is classified as:


NORAD ID: 48137
Int'l Code: 2021-027AX
Perigee: 553.5 km
Apogee: 555.2 km
Inclination: 53.1 °
Period: 95.6 minutes
Semi major axis: 6925 km
RCS: Unknown
Launch date: April 7, 2021
Source: United States (US)
Launch site: AIR FORCE EASTERN TEST RANGE (AFETR)
Your satellite tracking list
Your tracking list is empty




NASA's NSSDC Master Catalog

Two Line Element Set (TLE):
1 48137U 21027AX  25186.21393810  .00001365  00000-0  11052-3 0  9991
2 48137  53.0540 182.5526 0001259  83.3200 276.7932 15.06400437234997
Source of the keplerian elements: AFSPC